GFSFLT2_500_rhum_108.txt.gz
RH
97 98 99 98 97 97 98 97 100 98 97 96 96 96 97 96 96 95 97 96 96 92 87 90 91 97 97
100 98 98 98 98 97 98 98 98 97 97 96 96 97 96 97 96 96 96 95 97 95 92 100 95 99 96
99 97 97 97 97 96 98 97 95 94 95 94 95 96 92 87 91 96 96 93 98 98 100 98 98 100 97
97 98 99 99 98 98 98 95 96 86 80 88 95 85 47 51 76 88 87 82 100 100 93 92 96 93 98
78 74 50 79 100 95 58 27 22 39 18 32 63 65 70 31 41 60 66 69 68 79 60 72 80 71 85
12 17 36 32 23 27 11 11 10 13 9 9 7 7 7 9 27 33 40 66 78 80 86 84 77 68 88
27 19 15 12 11 11 11 11 10 11 10 9 9 8 8 8 8 8 9 13 21 40 48 49 68 72 84
61 55 44 30 22 19 17 15 14 14 13 10 10 10 9 9 8 8 7 7 8 14 16 16 50 59 83
76 75 71 65 56 43 36 31 25 24 21 17 14 12 11 10 9 8 8 7 7 9 12 15 30 61 92
75 81 78 78 74 70 62 51 41 37 35 29 25 25 19 14 11 8 7 7 8 11 17 43 53 70 100
94 94 89 83 81 77 70 66 64 57 52 46 42 39 35 33 21 14 11 8 9 8 19 36 54 91 100
78 90 92 91 91 85 77 69 63 61 62 58 52 47 44 39 33 22 17 10 9 9 21 71 97 94 99
13 21 36 69 71 62 64 69 67 63 59 57 54 45 37 37 35 23 15 11 8 14 26 23 100 100 94
4 5 5 6 8 10 21 28 37 38 38 36 35 34 30 26 23 18 15 9 7 23 35 81 89 100 72
7 7 8 8 8 8 7 7 8 10 12 10 11 11 10 12 13 12 9 7 5 81 91 46 100 100 100
10 10 11 16 20 21 15 12 10 8 6 6 5 5 5 5 5 6 5 4 13 9 86 100 99 78 97
23 19 19 30 49 51 34 24 19 16 13 11 9 6 5 4 4 3 4 4 6 15 40 100 100 85 99

GFSFLT2_500_rhum_111.txt.gz
RH
100 98 97 99 100 97 98 97 96 97 97 97 97 96 89 86 87 94 96 97 96 96 97 97 98 97 96
98 98 97 97 96 97 97 98 97 99 100 98 98 95 94 100 95 94 95 97 96 96 96 96 95 98 97
96 97 99 97 98 98 97 96 98 98 98 97 97 96 99 96 98 99 98 98 96 96 97 98 96 98 95
80 91 92 97 99 98 98 98 97 96 97 98 98 97 97 96 96 96 97 97 96 96 98 97 95 96 93
20 28 33 66 66 87 98 98 98 98 98 97 98 96 98 97 98 94 95 96 92 98 97 93 96 94 97
20 14 18 22 14 56 81 83 98 98 98 94 84 84 71 96 95 91 78 97 98 96 90 88 96 82 77
39 32 24 21 16 13 50 52 59 80 97 81 46 26 41 60 85 65 47 64 69 58 62 76 71 69 64
42 46 46 47 41 28 18 20 58 77 77 80 58 15 11 15 20 27 16 16 39 37 34 32 25 44 33
77 74 66 47 47 46 50 44 22 14 17 16 24 17 10 11 11 12 11 9 9 8 7 7 7 8 10
43 44 50 66 74 68 53 53 58 54 28 16 13 13 12 12 12 12 11 10 9 8 8 7 6 6 7
64 56 47 41 39 41 55 68 68 70 78 60 32 23 19 16 16 15 13 12 11 10 9 8 7 7 7
38 40 49 59 56 47 39 32 38 62 74 85 71 57 43 32 26 22 20 16 14 13 11 10 8 7 8
9 14 16 21 30 44 56 54 47 40 62 84 84 86 74 62 49 40 33 28 21 17 15 13 11 11 9
7 7 7 7 8 9 13 25 49 60 61 66 86 90 87 82 74 64 53 44 37 25 20 16 18 18 12
8 8 8 8 8 7 7 7 7 16 34 61 74 76 89 90 84 78 70 62 55 39 31 25 18 20 12
21 16 13 11 10 10 9 8 7 6 5 8 21 56 76 76 86 85 74 69 63 55 43 35 28 20 15
53 53 38 33 24 19 14 11 10 9 8 7 7 6 17 48 62 65 67 64 60 56 47 38 26 18 11

GFSFLT2_500_rhum_114.txt.gz
RH
96 97 95 80 79 97 96 98 97 94 96 88 88 97 98 96 93 96 98 97 94 99 96 98 98 97 97
97 99 97 94 96 97 79 89 97 98 91 93 97 83 97 97 99 97 100 98 92 96 96 97 98 97 97
98 97 98 97 99 96 98 98 97 98 97 98 98 98 97 98 96 97 97 97 97 97 97 98 97 96 97
92 99 99 98 100 97 100 100 100 100 100 96 97 97 96 96 95 98 96 97 96 93 94 96 97 97 97
26 32 91 96 98 98 100 100 99 97 98 93 98 98 99 100 97 98 99 98 97 95 93 97 97 98 97
34 32 31 28 27 45 87 95 99 86 96 100 98 98 98 97 99 100 94 91 97 98 97 91 96 99 97
71 48 35 34 30 21 16 43 37 89 56 90 97 99 98 98 98 100 98 100 100 99 100 97 98 98 98
26 64 76 58 39 35 31 22 16 18 32 45 87 96 98 98 98 99 97 99 98 97 98 98 98 98 98
42 37 34 59 83 57 41 39 31 26 22 17 64 74 95 98 90 98 93 95 97 98 98 98 99 98 98
62 48 38 54 48 60 80 61 41 46 40 26 21 57 85 95 96 100 100 92 94 75 73 95 90 75 75
7 16 48 49 56 54 39 54 74 56 50 50 45 27 38 68 90 92 65 100 92 50 60 54 67 64 52
9 8 7 11 40 52 54 43 37 47 74 66 47 54 46 24 24 45 70 63 51 56 24 16 19 18 28
10 9 9 9 8 9 33 53 51 42 38 46 68 70 51 48 48 54 23 16 14 14 20 14 13 12 12
9 8 6 6 7 8 8 9 39 55 58 51 42 36 63 70 56 57 66 47 24 17 15 16 15 13 12
32 31 25 14 9 7 7 9 8 11 32 54 58 47 41 35 43 70 79 79 78 49 27 19 17 16 14
56 50 39 31 22 17 11 8 9 9 9 12 30 48 52 47 40 41 55 85 96 94 73 43 26 22 20
64 69 65 53 47 46 33 18 12 10 11 10 9 12 29 49 52 53 52 67 95 99 97 87 60 36 26

GFSFLT2_500_rhum_117.txt.gz
RH
96 92 100 96 95 80 96 99 96 98 91 74 77 97 78 92 90 99 74 92 90 91 96 92 100 99 96
46 97 96 98 99 98 92 95 96 96 90 98 87 88 98 97 96 92 82 100 100 96 97 96 97 97 95
28 26 44 97 100 99 97 97 99 100 93 96 94 98 97 97 100 93 92 97 98 97 97 97 96 97 94
53 50 30 32 92 98 99 98 99 98 96 89 100 97 98 98 100 98 96 92 77 90 90 97 97 99 99
32 39 64 40 30 45 94 99 98 98 100 100 99 99 98 98 98 98 98 98 95 96 96 88 95 97 100
22 28 35 54 62 34 29 84 100 98 99 100 98 99 99 99 97 96 96 97 96 98 100 97 97 96 96
34 26 23 34 37 69 52 32 57 100 97 100 97 100 98 98 97 98 100 98 99 98 98 95 95 97 99
26 42 43 36 31 31 50 65 38 37 89 95 97 96 97 100 100 99 100 99 98 98 98 97 97 100 99
12 10 10 24 38 30 33 29 66 58 35 67 68 97 99 99 96 98 99 98 98 98 99 89 96 100 100
26 18 12 9 8 21 30 30 25 42 85 39 32 38 39 81 98 95 100 98 98 99 99 99 100 100 98
20 16 14 11 9 7 8 27 34 27 48 72 54 34 36 25 33 92 98 99 99 97 99 95 99 98 99
24 24 23 20 17 13 8 5 16 32 40 40 56 72 40 33 35 27 75 96 98 99 98 98 99 98 99
30 20 13 11 11 13 14 11 6 7 29 49 35 50 70 49 42 47 27 59 90 97 99 99 96 84 94
34 14 15 20 19 14 11 10 11 9 5 19 44 38 42 69 66 53 54 32 38 87 94 97 99 97 82
36 21 38 44 43 40 32 21 9 9 10 7 13 38 45 43 60 80 68 57 58 44 76 92 92 98 90
48 31 48 58 54 53 42 30 20 12 7 8 7 10 30 50 44 56 76 77 66 68 64 41 58 81 68
56 43 50 72 70 70 68 50 33 24 16 8 7 7 8 21 43 55 63 66 85 74 60 64 50 44 63

GFSFLT2_500_rhum_120.txt.gz
RH
15 28 42 49 33 63 93 89 99 96 97 90 94 88 71 51 59 94 99 96 83 85 73 85 77 79 95
16 18 20 21 33 44 36 93 100 97 99 92 87 79 98 79 75 93 94 94 91 98 86 97 74 82 94
14 15 17 20 20 20 43 33 72 99 99 100 95 94 94 99 92 89 98 87 91 87 99 91 98 100 98
14 14 14 14 15 19 26 34 39 45 98 95 100 98 87 98 97 99 97 99 98 97 98 97 89 96 96
30 30 28 21 16 16 18 30 51 43 55 98 97 98 96 98 99 99 98 96 98 98 95 85 80 88 98
20 22 28 41 45 30 19 22 31 60 44 42 96 99 97 100 99 94 98 98 98 97 98 90 98 95 96
8 10 10 10 15 30 43 29 25 40 50 52 49 100 99 99 98 99 100 98 98 98 99 92 95 100 98
9 8 8 9 10 8 11 26 39 37 33 51 62 63 100 98 99 99 100 98 98 97 97 97 96 96 91
18 14 12 12 12 11 10 7 11 23 44 25 60 51 80 99 100 100 100 94 99 98 98 97 95 93 90
33 26 20 21 22 16 10 9 7 7 9 27 26 56 57 80 97 100 99 100 98 99 97 97 99 98 97
43 34 25 24 28 26 21 16 12 7 6 12 24 26 49 67 62 94 100 98 100 100 100 98 99 98 95
58 53 31 27 27 25 23 21 17 13 11 5 9 21 23 42 74 53 95 97 100 100 99 99 99 98 100
77 68 47 32 32 31 21 9 8 7 8 9 5 7 21 20 41 80 51 88 97 100 100 100 99 98 100
83 81 57 37 37 32 14 12 13 13 8 6 8 5 7 21 22 48 73 46 96 88 98 97 99 99 100
94 89 48 40 42 33 24 33 39 40 32 18 7 8 5 7 22 32 55 72 49 69 52 92 99 99 100
100 83 42 43 37 44 42 59 60 56 45 30 19 8 8 6 9 23 42 60 81 43 58 46 91 98 100
99 48 45 35 34 48 60 79 78 66 58 48 28 13 7 8 8 9 27 51 65 80 45 53 32 85 98

GFSFLT2_500_rhum_123.txt.gz
RH
24 21 16 13 15 18 19 20 25 33 45 40 60 67 70 59 42 36 29 25 16 13 17 19 26 34 54
33 28 25 26 22 17 16 15 16 19 25 44 48 82 92 87 78 54 37 23 17 16 15 13 28 64 66
28 23 17 16 14 15 15 15 15 16 17 26 42 39 86 93 100 100 66 99 92 62 33 35 76 96 98
16 18 26 27 23 19 19 16 16 14 13 14 24 41 76 86 95 98 97 89 96 94 76 91 91 100 99
25 19 16 13 14 17 25 32 35 27 14 13 12 20 39 74 98 99 92 100 97 99 82 71 86 92 92
10 10 10 9 9 8 7 6 12 20 36 28 14 14 17 43 48 99 100 97 100 99 94 90 97 95 79
15 16 14 14 15 14 14 9 6 6 10 30 32 22 18 19 44 67 96 90 98 99 98 96 98 96 98
20 20 22 26 30 33 28 18 14 9 6 8 19 32 36 24 21 49 58 95 93 98 99 99 99 98 98
28 31 34 37 42 50 49 40 28 17 14 5 6 19 30 41 25 40 50 87 93 95 97 98 98 98 98
42 39 38 44 63 67 66 52 39 20 21 13 8 7 18 28 41 33 61 64 100 99 96 98 100 98 99
20 30 34 43 75 88 85 70 53 32 24 19 16 12 7 15 27 38 41 57 100 99 99 99 99 97 99
27 32 49 63 91 100 98 83 59 36 26 19 14 13 9 6 17 27 36 68 84 99 99 98 100 98 100
35 51 66 80 96 100 100 84 57 35 27 18 12 10 10 7 6 16 29 39 65 100 100 98 99 98 94
60 78 89 96 99 100 92 51 41 42 31 17 10 7 7 8 6 7 20 35 54 86 98 100 98 98 99
78 85 88 95 95 67 52 50 45 34 29 24 16 13 8 6 6 7 8 21 37 62 91 99 100 100 100
65 48 39 45 50 58 56 39 27 28 31 44 56 44 24 12 5 6 6 10 23 46 61 85 99 99 99
26 28 34 38 49 45 32 32 53 76 81 73 65 53 40 28 13 6 6 6 13 25 54 73 87 99 99

GFSFLT2_500_rhum_126.txt.gz
RH
45 41 38 35 35 35 35 34 32 25 18 15 19 26 34 38 36 34 34 62 58 35 30 34 51 67 61
36 31 26 24 21 19 17 18 19 23 26 25 22 16 15 16 20 32 39 51 69 60 48 37 45 58 61
19 15 12 12 12 14 18 20 20 20 19 16 16 18 18 16 15 17 24 44 76 83 67 52 40 47 43
11 10 16 26 26 24 23 22 18 20 24 27 23 18 16 16 15 16 16 26 54 90 80 84 72 39 35
18 26 21 11 7 7 7 7 8 8 8 8 11 20 25 17 15 14 14 15 40 57 79 95 98 54 39
18 9 8 8 10 10 10 9 10 13 11 11 12 10 8 18 23 14 14 14 20 72 76 98 97 98 57
8 10 11 13 12 12 13 13 10 10 11 12 13 8 9 9 11 23 14 13 14 33 69 85 96 92 96
8 10 13 15 14 11 12 15 16 17 16 21 29 23 17 10 6 9 21 15 13 17 50 84 87 100 98
15 16 16 14 13 17 21 25 27 33 40 39 40 36 32 22 12 6 8 22 16 12 30 69 88 98 100
20 20 16 17 19 17 18 24 31 42 57 54 62 52 34 30 18 11 5 13 24 15 14 39 84 93 99
27 22 18 16 17 29 47 55 58 65 80 74 79 62 38 22 22 20 10 5 18 25 14 29 51 84 97
37 37 38 45 51 57 62 64 62 58 72 79 71 61 39 27 19 20 17 7 8 25 19 21 45 52 96
39 42 49 54 60 62 52 34 24 28 48 63 64 46 37 28 15 15 16 13 6 12 25 18 48 49 79
41 51 61 71 63 31 27 32 36 38 48 49 48 40 34 28 15 12 13 14 11 7 29 22 33 55 90
62 65 69 40 24 27 41 42 38 50 50 42 29 23 19 17 13 10 10 13 13 9 18 27 30 63 100
71 60 29 28 23 21 23 25 31 34 48 64 68 69 54 53 34 22 14 10 12 10 11 23 33 62 100
57 26 32 25 26 38 47 60 69 68 66 61 60 60 58 60 61 41 22 13 10 10 8 17 28 49 94

GFSFLT2_500_rhum_129.txt.gz
RH
45 48 50 48 42 35 26 22 19 19 18 16 16 16 19 26 30 21 16 34 40 29 28 42 47 52 74
56 49 43 35 28 23 17 12 10 9 9 9 10 13 15 17 26 31 31 18 15 27 28 25 23 25 42
54 46 36 27 18 13 9 8 9 12 16 19 21 22 21 20 17 17 25 30 27 16 14 26 41 40 35
46 31 18 13 10 9 13 20 22 17 12 9 8 8 9 12 18 22 19 18 22 25 20 14 13 29 37
23 14 11 10 13 20 22 14 8 8 8 8 7 7 7 7 6 5 12 21 21 17 21 20 14 13 22
14 12 14 18 20 15 9 6 8 11 9 10 11 8 7 7 8 8 6 5 11 23 20 17 19 17 14
14 19 21 15 13 8 6 7 8 10 10 8 12 14 14 14 13 12 11 10 6 5 17 22 16 16 16
21 20 12 8 9 9 10 10 10 9 9 10 13 13 14 16 21 22 21 17 18 8 4 14 20 16 15
21 11 11 14 15 16 15 13 13 11 12 12 13 20 23 24 29 32 33 30 27 18 6 4 15 18 15
11 15 15 21 31 30 28 24 24 26 37 36 31 36 32 37 41 43 45 45 37 23 11 4 5 18 15
11 15 16 30 33 29 27 29 38 45 58 51 49 58 57 48 49 42 38 32 24 21 14 8 4 11 18
16 16 23 35 32 35 51 59 56 43 32 24 20 18 19 22 23 26 26 26 28 24 18 12 6 5 17
16 26 34 32 55 63 49 28 18 19 17 16 19 25 30 33 34 36 32 37 37 21 17 14 8 4 12
31 30 25 52 52 28 18 26 25 27 34 33 31 31 32 29 24 22 26 25 28 19 12 14 10 5 6
27 20 36 48 19 25 32 37 43 51 44 44 51 54 57 60 66 75 41 20 17 15 12 12 12 6 4
19 26 49 21 24 36 37 47 57 68 74 76 76 78 82 89 82 63 60 62 35 16 12 11 13 8 5
21 52 33 23 26 26 38 49 57 68 73 68 72 76 69 77 95 85 57 48 41 33 17 11 12 10 5

GFSFLT2_500_rhum_132.txt.gz
RH
69 67 61 55 54 56 56 52 46 40 33 29 24 19 15 12 11 11 12 14 16 16 22 25 22 41 52
74 72 67 61 56 53 50 45 37 26 19 17 14 12 10 9 8 8 8 8 9 12 14 15 21 21 37
79 78 73 68 60 52 43 29 21 15 13 11 10 11 11 13 16 18 18 16 14 11 13 18 25 28 21
79 87 80 74 61 43 22 17 12 11 11 11 15 19 19 17 14 12 9 9 10 10 14 16 16 20 31
82 90 87 67 47 24 16 12 13 17 19 18 16 12 9 8 7 7 6 5 5 5 5 6 13 17 16
89 93 87 56 22 15 13 15 18 17 14 11 9 7 8 9 9 9 8 7 6 6 5 4 4 5 16
97 96 75 26 15 14 19 20 17 10 9 8 10 10 10 11 11 10 10 9 12 11 9 8 8 5 3
94 92 35 20 19 20 20 15 10 11 11 9 13 12 17 18 16 13 12 13 13 12 12 12 10 8 7
97 60 26 24 22 18 11 10 10 14 23 19 20 18 18 18 19 21 25 26 25 23 22 18 15 11 9
91 36 29 19 11 8 11 12 18 24 24 19 17 20 14 17 24 32 31 31 30 29 29 26 22 18 13
44 33 13 8 12 16 19 26 22 16 26 24 20 16 12 10 10 12 16 21 28 35 40 39 33 24 16
34 14 9 14 21 29 24 17 24 26 18 21 28 29 27 29 25 22 14 11 12 14 16 18 28 36 24
15 10 15 26 29 19 18 31 21 19 31 43 53 48 40 47 49 53 48 45 24 16 18 23 22 19 20
11 18 30 32 21 18 36 20 26 40 60 74 73 71 54 47 53 57 62 52 52 55 30 20 22 27 22
19 36 37 28 21 36 21 26 44 60 73 90 85 88 78 65 59 59 58 68 75 61 57 39 23 24 22
41 43 37 26 31 23 24 38 47 63 77 81 78 80 96 94 82 72 74 71 71 72 68 56 53 26 21
47 42 31 28 27 24 37 43 62 75 92 89 89 82 86 98 100 100 83 86 79 81 72 54 42 43 16

GFSFLT2_500_rhum_138.txt.gz
RH
28 26 28 29 31 31 30 31 32 35 37 36 41 54 64 63 57 53 53 53 54 50 46 41 38 36 36
34 31 32 31 34 38 36 36 41 56 55 50 48 56 68 72 68 63 58 53 48 44 39 34 29 27 25
37 42 46 45 45 45 44 50 68 74 63 56 61 67 75 78 77 72 61 51 44 37 30 23 21 20 16
40 50 54 55 54 54 63 83 84 74 64 71 84 97 98 87 88 92 74 40 23 19 17 16 15 14 13
60 55 61 66 61 62 83 96 86 80 80 90 97 100 99 99 99 89 63 23 16 16 16 16 15 14 13
60 64 73 69 67 71 91 94 93 96 100 100 96 100 96 82 67 35 21 18 18 18 17 16 15 15 14
72 72 77 75 82 95 94 94 98 100 99 100 92 95 73 38 25 20 19 19 18 18 16 16 15 15 15
85 94 100 99 91 91 100 100 100 100 93 100 91 52 22 14 14 14 14 14 14 13 13 12 12 11 10
97 100 96 90 88 86 98 100 100 100 92 84 37 16 12 14 16 14 12 11 10 9 8 7 7 6 6
97 84 94 93 90 90 98 100 100 76 55 35 13 14 17 16 15 14 12 12 12 12 12 12 13 13 13
100 100 98 90 93 96 100 100 81 21 12 11 20 19 16 13 15 19 23 26 25 23 25 27 26 25 25
100 100 100 97 97 98 98 86 31 14 21 19 21 17 14 14 19 26 31 32 35 39 40 39 41 43 40
100 100 100 100 99 100 88 28 14 27 29 27 17 16 16 23 23 33 34 44 51 46 45 47 56 58 52
100 100 100 100 100 89 24 14 31 44 35 21 19 19 27 27 31 36 50 53 52 54 56 62 70 75 72
100 100 100 100 94 28 16 31 50 47 31 26 21 27 30 30 40 51 52 50 54 56 67 70 76 84 88
100 100 100 98 37 16 23 49 52 42 31 31 24 34 36 46 58 56 51 50 45 46 84 79 77 96 100
100 100 98 46 16 23 45 56 57 34 37 29 26 34 36 46 67 90 58 59 48 40 93 97 86 99 100

GFSFLT2_500_rhum_141.txt.gz
RH
20 20 21 22 21 32 34 31 27 23 22 25 25 28 29 29 34 36 37 48 64 70 60 47 34 30 30
15 16 16 16 19 26 29 32 30 38 37 35 34 34 34 34 42 48 47 54 64 75 76 69 63 59 55
16 17 18 26 27 29 29 30 31 39 46 47 42 42 42 51 62 60 57 63 76 87 85 79 73 64 55
17 24 35 43 43 53 59 62 66 56 56 57 63 74 84 83 77 70 67 80 97 96 82 72 60 57 55
29 48 63 69 70 72 71 76 75 72 69 69 80 100 95 85 86 82 85 92 96 93 78 88 96 84 73
53 73 87 83 83 78 80 78 96 88 83 95 94 94 90 94 96 100 100 97 94 96 96 97 86 79 48
58 96 86 100 93 99 80 92 100 100 94 100 98 95 94 100 99 99 100 100 99 92 78 72 62 36 22
30 100 100 97 97 95 89 82 94 100 88 90 98 100 99 100 98 100 93 71 40 23 19 19 18 17 15
43 75 78 66 69 65 70 74 100 100 96 86 100 100 100 99 94 76 34 17 15 15 14 13 12 11 9
20 33 66 100 100 90 90 95 100 100 98 84 96 99 98 67 33 20 18 17 16 13 11 10 10 10 11
88 100 100 100 89 83 92 97 100 100 96 84 99 87 44 21 32 23 20 16 13 13 14 16 17 16 15
100 100 100 100 96 92 92 95 100 100 96 86 87 33 15 23 28 26 18 17 20 24 24 24 28 28 28
100 100 100 100 99 97 93 94 97 100 100 83 26 13 20 30 26 20 20 27 33 30 29 32 34 32 32
92 100 100 100 100 96 96 93 96 100 75 23 14 20 35 32 21 21 24 27 32 32 27 34 39 44 47
72 95 100 100 100 96 97 96 100 76 22 15 19 36 42 27 23 23 24 31 31 32 34 43 46 58 60
80 88 100 100 100 100 99 98 82 23 19 31 45 46 39 28 25 23 24 30 39 40 47 46 49 75 62
86 100 100 100 100 100 99 77 22 19 34 67 67 59 38 27 34 29 24 32 42 50 54 65 68 61 46

GFSFLT2_500_rhum_144.txt.gz
RH
12 15 15 12 9 9 9 10 13 14 14 14 15 16 19 22 28 31 32 32 32 31 33 37 48 57 58
16 9 9 7 7 8 9 11 13 15 16 15 16 18 20 22 29 31 34 37 35 36 42 50 52 54 68
7 8 7 7 7 9 15 21 27 32 31 33 44 46 39 44 40 44 48 44 44 44 54 58 59 66 73
9 7 7 6 6 10 26 42 55 66 67 64 70 71 72 67 64 63 62 69 77 74 80 79 75 72 75
7 7 5 5 5 11 36 59 90 85 94 83 79 76 74 75 74 70 71 88 100 98 87 82 84 85 90
7 8 4 3 4 16 23 93 94 100 89 100 72 70 87 95 92 88 87 93 97 99 99 98 96 100 94
8 6 3 4 4 22 49 48 94 89 88 96 97 75 77 76 79 90 94 99 100 100 100 100 100 100 100
8 4 3 3 4 7 9 15 36 75 78 54 68 70 81 88 82 84 91 96 100 100 100 100 100 100 100
7 4 3 3 4 6 37 88 99 100 99 84 96 85 92 99 85 88 93 95 99 100 100 96 87 71 44
6 4 3 3 4 34 87 80 87 80 100 87 88 87 99 100 92 92 97 95 94 81 56 34 19 16 15
5 4 4 4 5 67 92 82 90 92 100 89 99 92 92 100 97 92 90 77 46 26 21 18 17 14 13
5 4 4 4 8 70 86 86 87 96 100 92 96 97 94 100 100 90 71 37 26 24 21 18 15 13 13
5 4 4 4 9 74 87 91 95 100 100 93 92 93 98 100 71 30 32 32 32 29 24 17 16 16 18
5 4 4 6 13 41 75 91 100 100 100 94 93 94 97 65 23 38 52 43 42 33 22 20 20 22 27
5 5 5 8 23 35 71 97 100 100 100 92 89 93 68 26 17 28 45 50 40 30 27 24 24 32 39
6 5 6 15 67 81 90 98 100 100 100 98 90 68 29 18 24 43 53 51 41 33 30 27 25 33 37
6 6 9 73 99 100 100 99 100 100 100 91 51 26 17 18 47 55 55 50 40 34 35 35 28 25 25

GFSFLT2_500_rhum_150.txt.gz
RH
65 64 63 60 54 43 32 29 26 23 14 19 15 8 6 5 5 5 4 3 5 7 9 16 21 14 15
69 68 66 56 44 36 31 29 24 14 15 17 8 7 6 6 6 4 3 3 6 11 14 17 24 40 22
70 72 58 43 36 33 31 23 18 17 14 8 7 6 6 7 6 3 3 3 9 18 28 35 38 38 48
76 68 48 38 35 26 24 20 18 11 8 7 7 6 7 7 5 3 4 9 16 36 54 60 59 56 55
72 50 47 38 30 30 46 20 9 9 8 8 7 6 7 6 4 3 4 7 13 34 43 67 69 67 68
65 71 75 69 71 75 47 14 10 10 10 9 7 6 6 5 3 3 4 5 8 21 33 81 75 72 81
96 100 99 100 97 74 35 19 15 12 11 8 7 6 6 5 3 4 14 38 56 59 18 64 79 64 84
100 100 100 99 77 49 36 25 18 12 11 9 7 6 5 4 4 8 44 61 74 87 78 63 80 60 81
50 61 72 78 62 49 30 18 15 13 10 7 8 6 5 4 4 25 68 73 80 83 89 93 80 65 89
17 16 16 16 16 15 15 13 12 11 10 8 7 6 5 4 13 49 76 80 85 87 83 82 86 86 92
10 10 11 11 10 10 10 10 10 10 10 8 7 6 5 4 26 89 86 74 82 92 89 88 89 87 90
7 8 8 8 7 8 9 9 12 11 10 8 7 6 5 5 34 91 97 84 81 87 88 85 84 90 96
4 5 7 13 12 10 10 11 11 11 11 9 7 6 5 6 41 86 95 96 79 75 80 83 83 87 98
10 13 10 33 100 94 20 12 11 10 10 8 7 6 6 13 41 76 94 92 77 68 70 84 88 89 95
17 19 18 99 100 100 98 31 11 10 10 9 7 6 10 36 77 100 98 90 89 74 71 80 80 70 59
50 25 24 76 100 100 92 25 17 14 11 10 12 8 66 100 100 100 97 99 86 83 76 70 47 34 26
100 90 49 100 100 100 100 25 30 25 24 18 41 97 100 100 100 100 100 93 86 73 48 28 22 21 20

GFSFLT2_500_rhum_153.txt.gz
RH
59 61 61 76 75 68 71 70 70 68 59 43 33 30 27 24 21 21 16 13 14 10 7 3 3 3 3
61 72 73 80 79 74 76 80 76 62 51 37 33 28 17 19 20 12 11 12 12 9 4 4 4 3 2
69 75 80 80 84 89 92 87 78 61 50 39 30 20 26 22 10 9 11 11 11 6 4 4 3 2 3
79 76 77 91 94 99 95 94 88 76 73 62 30 38 45 10 10 10 11 11 10 4 4 4 3 3 4
83 83 79 92 100 100 97 95 91 90 87 73 59 76 29 14 12 12 12 11 10 4 4 4 2 3 3
91 93 99 100 100 100 94 94 95 100 96 92 97 78 40 23 17 14 13 10 7 4 4 3 3 3 3
91 85 87 93 91 91 93 91 98 100 100 100 99 81 52 34 23 15 13 8 6 4 4 3 6 12 17
40 38 35 33 31 32 29 29 30 36 47 64 90 85 74 54 25 15 12 8 6 4 4 5 23 45 64
24 22 20 18 18 18 17 17 17 17 19 21 23 28 28 22 19 14 12 8 6 5 4 13 38 49 65
16 14 12 11 10 10 11 12 12 12 13 15 16 17 16 17 16 14 11 8 6 5 4 24 60 71 79
7 7 6 7 8 7 8 8 10 10 11 12 13 14 15 15 15 13 11 8 6 5 7 51 68 69 81
5 5 5 6 6 7 8 43 33 33 21 15 13 13 14 13 13 12 11 8 6 5 12 60 76 81 82
12 10 10 10 12 14 15 96 78 100 100 81 30 15 12 11 11 11 10 8 6 5 13 62 81 87 90
32 26 16 15 17 23 37 100 100 100 100 93 52 16 12 10 10 10 9 7 7 6 25 62 86 100 96
67 40 27 28 35 85 100 58 100 100 100 100 78 36 16 13 11 12 11 12 17 13 51 70 90 95 94
64 52 54 95 97 98 100 98 100 100 100 98 80 28 21 20 23 25 29 76 58 45 73 84 90 93 96
75 98 95 100 100 92 91 100 100 100 100 81 88 34 38 56 74 67 100 100 100 90 88 91 99 98 92